Weather Roundup
Issued by NWS

Home | Current Version | Previous Version | Graphics & Text | Print | Product List | Glossary Off
Versions: 1 2 3 4 5 6 7 8 9 10 11 12 13 14 15 16 17 18 19 20 21 22 23 24 25 26 27 28 29 30 31 32 33 34 35 36 37 38 39 40 41 42 43 44 45 46 47 48 49 50

468
NZUS93 KARX 220010
HRRWXR

CURRENT HOURLY OBSERVATIONS ACROSS
MUCH OF THE UPPER MISSISSIPPI VALLEY
NATIONAL WEATHER SERVICE LA CROSSE WI
600 PM CST TUE FEB 21 2017


...SOUTHEAST MINNESOTA...


CITY           SKY/WX    TMP DP  RH WIND       PRES   REMARKS
ROCHESTER      CLOUDY    50  43  77 S16       29.77S
ROCHESTER/MAYO FAIR      54  42  65 S14G21    29.77R
WINONA         CLOUDY    55  41  58 S6        29.78F
AUSTIN         PTCLDY    52  45  76 S10       29.77S
ALBERT LEA     MOCLDY    55  46  71 S8        29.76S
DODGE CENTER   CLOUDY    52  45  76 S13       29.76S
PRESTON        PTCLDY    50  42  72 S13       29.79F
OWATONNA       PTCLDY    54  45  71 S10       29.75S
FARIBAULT      PTCLDY    55  46  71 S8        29.74F
$$

...ELSEWHERE IN MINNESOTA...


CITY           SKY/WX    TMP DP  RH WIND       PRES   REMARKS
MINNEAPOLIS    MOCLDY    59  45  59 S8        29.70F
INTNL FALLS    PTCLDY    38  32  79 NE5       29.66R WCI  34
DULUTH         CLOUDY    47  35  63 S3        29.68S
RED WING       CLOUDY    55  41  58 SW5       29.75R
REDWOOD FALLS  CLEAR     57  43  59 W8        29.69S
MANKATO          N/A     57  47  69 S12       29.72F
WORTHINGTON    CLEAR     58  45  62 S9        29.72F
FAIRMONT       CLEAR     58  46  64 S17       29.73F
$$

...SOUTHWEST WISCONSIN...


CITY           SKY/WX    TMP DP  RH WIND       PRES   REMARKS
LA CROSSE      CLOUDY    57  36  45 S13       29.79F
PRAIRIE DU CHI CLOUDY    56  38  51 CALM      29.84F
BOSCOBEL       CLOUDY    56  37  49 CALM      29.84F
LONE ROCK      PTCLDY    51  38  60 CALM      29.86F
PLATTEVILLE    CLOUDY    55  40  57 S6        29.87F
FORT MC COY    PTCLDY    56  33  42 S5        29.82S
CAMP DOUGLAS   MOCLDY    55  32  41 SE5       29.81F
MAUSTON-NEW LI CLOUDY    56  33  41 S6        29.82S
VIROQUA        FAIR      53  37  53 S9        29.82F
WIS DELLS      MOCLDY    55  32  42 S5        29.85F
$$

...ELSEWHERE IN WISCONSIN...


CITY           SKY/WX    TMP DP  RH WIND       PRES   REMARKS
MILWAUKEE      PTCLDY    47  44  90 SE6       29.89S FOG
MADISON        CLOUDY    56  37  49 S5        29.86F
GREEN BAY      PTCLDY    53  43  68 S5        29.85S
EAU CLAIRE     CLOUDY    54  37  52 S9        29.74S
BLACK RVR FLS  FAIR      57  28  32 S6        29.79S
MEDFORD        MOCLDY    44  38  78 S7        29.76S
WAUSAU         PTCLDY    50  34  54 S8        29.77F
WIS RAPIDS     CLOUDY    55  33  43 S8        29.81F
MARSHFIELD     CLOUDY    53  34  48 S10       29.78F
RICE LAKE      CLOUDY    48  38  68 CALM      29.74S
$$

...NORTHEAST IOWA...


CITY           SKY/WX    TMP DP  RH WIND       PRES   REMARKS
WATERLOO       CLEAR     55  39  54 S8        29.83S
DUBUQUE        CLOUDY    52  41  66 S7        29.87F
DECORAH        CLOUDY    54  43  66 S10G16    29.81S
MASON CITY     PTCLDY    52  44  74 S9        29.80S
CHARLES CITY   CLOUDY    54  46  76 S13       29.81S
OELWEIN        MOCLDY    52  46  82 S10       29.84S
$$

...ELSEWHERE IN IOWA...


CITY           SKY/WX    TMP DP  RH WIND       PRES   REMARKS
DES MOINES     PTCLDY    60  34  37 S10       29.84F
IOWA CITY      CLEAR     58  40  51 CALM      29.88F
FORT DODGE     CLEAR     57  43  58 S13       29.79S
MARSHALLTOWN   CLEAR     56  41  57 S9        29.82F
CEDAR RAPIDS   CLEAR     56  41  57 S5        29.86F
$$

...NORTHERN ILLINOIS...


CITY           SKY/WX    TMP DP  RH WIND       PRES   REMARKS
CHICAGO-OHARE  MOCLDY    62  50  64 SW3       29.89S
CHICAGO-MIDWAY MOCLDY    60  51  72 CALM      29.90S
MOLINE         PTCLDY    60  44  55 CALM      29.88S
ROCKFORD       CLOUDY    60  39  45 CALM      29.91S
PEORIA         MOCLDY    63  55  75 S6        29.90R
$$

NOTE: "FAIR" INDICATES FEW OR NO CLOUDS BELOW 12,000 FEET WITH NO
SIGNIFICANT WEATHER AND/OR OBSTRUCTIONS TO VISIBILITY. WIND
SPEEDS ARE IN MILES-PER-HOUR.




USA.gov is the U.S. government's official web portal to all federal, state and local government web resources and services.